DECAYED

COSMOS 886 DEB, 14501 (Decayed)

Orbit data source: Space-Track

COSMOS 886 DEB, 14501 was space debris in LEO originally from a launch on Mon, 27 Dec 1976 UTC launched from the Tyuratam Missile And Space Complex (TTMTR). Debris objects in space refer to the collection of defunct objects orbiting the Earth. Examples of debris include non-operational satellites, rocket bodies, and fragments generated from explosions, collisions, or faulty payload assembly.

Not visible in the next 10 days
Identifier
14501, 1976-126BN
Orbit
Decayed
Country
Flag of CISCIS
Related business
Manufacturer
Unknown
Mission
Decayed spacecraft
Bus & Motor
Unknown
Mass
Unknown
Launch date (UTC)
1976-12-27 (49 years ago)
Launch vehicle
Unknown
Launch site
Tyuratam Missile And Space Complex (TTMTR)
Object type
Payload
Rocket body
Debris
Shape & HBR
Unknown shape, 0.1 m
Radar Cross Section
Medium (>0.1 m² and <1 m²)

Expand to show TLE details & history
Last TLE update: 4 months ago

TLE from 4 months ago
0 COSMOS 886 DEB
1 14501U 76126BN  26064.43185505  .08967905  67923-5  47049-2 0  9994
2 14501  65.5928 307.6976 0017078 206.5599 153.4711 16.19434659149997
Epoch: 2026-03-05T10:21Z
TLE epoch observation values (Epoch: 2026-03-05T10:21:52.276Z)
Latitude
-0°
Longitude
-10.95252°
Altitude
233.369 km
Speed
7.761 km/s
True Right ascension
20h 30m 47s
True Declination
0° 00' 00"
Sunlit
Object was in daylight at epoch
Visualization orbit readout
Latitude
Unknown
Longitude
Unknown
Altitude
Unknown
Speed
Unknown
Apparent Right ascension
Unknown
Apparent Declination
Unknown
Sunlit
N/A
Visualization observer readout
Local Sidereal Time
03:11:43
Azimuth
Unknown
Elevation
Unknown
Doppler factor
Unknown
Orbital elements
Apogee altitude
230.731 km
Perigee altitude
208.197 km
Semi-major axis
6,597.601 km
Eccentricity
0.00171
Inclination
65.5928°
RAAN
307.6976°
Arg. of periapsis
206.5599°
True anomaly
153.55834°
Mean anomaly
153.4711°
Eccentric anomaly
153.51474°
Mean motion
4.05008 °/min
Orbital period
88.89 mins
BSTAR
0.0047049
Loading maneuver chart data...
Computing Atmospheric mass density...
Loading historical data...
Loading historical data...
Loading historical data...
Loading historical data...
Loading historical data...
Loading historical data...
Loading historical data...

Documentation

Showing up to 5 results
|